Time,TemperatureF,DewpointF,PressureIn,WindDirection,WindDirectionDegrees,WindSpeedMPH,WindSpeedGustMPH,Humidity,HourlyPrecipIn,Conditions,Clouds,dailyrainin,SoftwareType,DateUTC
2013-08-01 00:09:00,56.5,51.0,30.01,SE,136,0.0,-999.0,81,-99.99,,,0.00,weatherlink.com 1.10,2013-08-01 07:09:00,
2013-08-01 00:24:00,56.9,51.0,30.01,SE,136,0.0,-999.0,80,-99.99,,,0.00,weatherlink.com 1.10,2013-08-01 07:24:00,
2013-08-01 00:39:00,56.4,50.0,30.01,SE,136,0.0,-999.0,80,-99.99,,,0.00,weatherlink.com 1.10,2013-08-01 07:39:00,
2013-08-01 00:54:00,55.9,50.0,30.01,SE,136,0.0,-999.0,81,-99.99,,,0.00,weatherlink.com 1.10,2013-08-01 07:54:00,
2013-08-01 01:09:00,55.1,50.0,30.01,SE,136,0.0,-999.0,82,-99.99,,,0.00,weatherlink.com 1.10,2013-08-01 08:09:00,
2013-08-01 01:24:00,54.8,50.0,30.00,SE,136,0.0,-999.0,83,-99.99,,,0.00,weatherlink.com 1.10,2013-08-01 08:24:00,
2013-08-01 01:39:00,54.8,50.0,30.00,SE,136,0.0,-999.0,85,-99.99,,,0.00,weatherlink.com 1.10,2013-08-01 08:39:00,
2013-08-01 01:54:00,54.8,51.0,30.00,SE,137,0.0,-999.0,86,-99.99,,,0.00,weatherlink.com 1.10,2013-08-01 08:54:00,
2013-08-01 02:09:00,54.9,51.0,30.00,SE,137,0.0,-999.0,87,-99.99,,,0.00,weatherlink.com 1.10,2013-08-01 09:09:00,
2013-08-01 02:24:00,54.9,51.0,30.00,SE,137,0.0,-999.0,87,-99.99,,,0.00,weatherlink.com 1.10,2013-08-01 09:24:00,
2013-08-01 03:09:00,54.2,51.0,30.00,SSE,155,0.0,-999.0,87,-99.99,,,0.00,weatherlink.com 1.10,2013-08-01 10:09:00,
2013-08-01 03:39:00,54.6,51.0,30.00,SW,234,0.0,-999.0,87,-99.99,,,0.00,weatherlink.com 1.10,2013-08-01 10:39:00,
2013-08-01 03:54:00,54.7,51.0,30.00,SW,234,0.0,-999.0,87,-99.99,,,0.00,weatherlink.com 1.10,2013-08-01 10:54:00,
2013-08-01 04:24:00,54.5,50.0,30.00,SW,234,0.0,-999.0,86,-99.99,,,0.00,weatherlink.com 1.10,2013-08-01 11:24:00,
2013-08-01 04:54:00,53.5,49.0,30.01,SW,234,0.0,-999.0,85,-99.99,,,0.00,weatherlink.com 1.10,2013-08-01 11:54:00,
2013-08-01 05:09:00,52.8,49.0,30.01,WSW,238,0.0,-999.0,86,-99.99,,,0.00,weatherlink.com 1.10,2013-08-01 12:09:00,
2013-08-01 05:24:00,53.1,49.0,30.01,WSW,238,0.0,-999.0,87,-99.99,,,0.00,weatherlink.com 1.10,2013-08-01 12:24:00,
2013-08-01 05:39:00,53.3,50.0,30.02,WSW,238,2.0,-999.0,87,-99.99,,,0.00,weatherlink.com 1.10,2013-08-01 12:39:00,
2013-08-01 05:54:00,54.1,51.0,30.01,WSW,239,0.0,-999.0,88,-99.99,,,0.00,weatherlink.com 1.10,2013-08-01 12:54:00,
2013-08-01 06:09:00,53.6,50.0,30.01,WSW,238,0.0,-999.0,87,-99.99,,,0.00,weatherlink.com 1.10,2013-08-01 13:09:00,
2013-08-01 06:24:00,52.7,49.0,30.02,WSW,238,0.0,-999.0,88,-99.99,,,0.00,weatherlink.com 1.10,2013-08-01 13:24:00,
2013-08-01 06:39:00,52.7,50.0,30.02,WSW,238,0.0,-999.0,89,-99.99,,,0.00,weatherlink.com 1.10,2013-08-01 13:39:00,
2013-08-01 07:24:00,55.3,51.0,30.03,South,180,0.0,-999.0,86,-99.99,,,0.00,weatherlink.com 1.10,2013-08-01 14:24:00,
2013-08-01 07:39:00,57.2,53.0,30.03,South,180,0.0,-999.0,85,-99.99,,,0.00,weatherlink.com 1.10,2013-08-01 14:39:00,
2013-08-01 07:54:00,58.1,52.0,30.03,South,178,2.0,-999.0,81,-99.99,,,0.00,weatherlink.com 1.10,2013-08-01 14:54:00,
2013-08-01 08:39:00,59.8,53.0,30.05,SE,138,0.0,-999.0,77,-99.99,,,0.00,weatherlink.com 1.10,2013-08-01 15:39:00,
2013-08-01 08:54:00,60.6,53.0,30.04,East,96,2.0,-999.0,75,-99.99,,,0.00,weatherlink.com 1.10,2013-08-01 15:54:00,
2013-08-01 09:09:00,61.8,53.0,30.05,SE,125,1.0,-999.0,74,-99.99,,,0.00,weatherlink.com 1.10,2013-08-01 16:09:00,
2013-08-01 09:24:00,61.5,53.0,30.05,SE,144,1.0,-999.0,74,-99.99,,,0.00,weatherlink.com 1.10,2013-08-01 16:24:00,
2013-08-01 09:39:00,61.3,53.0,30.04,ESE,115,0.0,-999.0,73,-99.99,,,0.00,weatherlink.com 1.10,2013-08-01 16:39:00,
2013-08-01 09:54:00,63.9,54.0,30.04,ESE,108,1.0,-999.0,70,-99.99,,,0.00,weatherlink.com 1.10,2013-08-01 16:54:00,
2013-08-01 10:09:00,64.4,54.0,30.04,ESE,123,0.0,-999.0,68,-99.99,,,0.00,weatherlink.com 1.10,2013-08-01 17:09:00,
2013-08-01 10:39:00,65.2,55.0,30.05,East,101,1.0,-999.0,69,-99.99,,,0.00,weatherlink.com 1.10,2013-08-01 17:39:00,
2013-08-01 10:54:00,66.8,55.0,30.04,SE,128,3.0,-999.0,66,-99.99,,,0.00,weatherlink.com 1.10,2013-08-01 17:54:00,
2013-08-01 11:09:00,67.0,55.0,30.04,ESE,113,4.0,-999.0,65,-99.99,,,0.00,weatherlink.com 1.10,2013-08-01 18:09:00,
2013-08-01 11:24:00,67.6,55.0,30.04,ESE,104,4.0,-999.0,64,-99.99,,,0.00,weatherlink.com 1.10,2013-08-01 18:24:00,
2013-08-01 11:39:00,69.2,57.0,30.04,ESE,119,0.0,-999.0,65,-99.99,,,0.00,weatherlink.com 1.10,2013-08-01 18:39:00,
2013-08-01 11:54:00,69.1,56.0,30.05,ESE,113,4.0,-999.0,63,-99.99,,,0.00,weatherlink.com 1.10,2013-08-01 18:54:00,
2013-08-01 12:09:00,68.9,56.0,30.04,ESE,116,0.0,-999.0,63,-99.99,,,0.00,weatherlink.com 1.10,2013-08-01 19:09:00,
2013-08-01 12:39:00,73.1,56.0,30.03,NW,317,3.0,-999.0,55,-99.99,,,0.00,weatherlink.com 1.10,2013-08-01 19:39:00,
2013-08-01 13:24:00,73.9,58.0,30.03,West,263,4.0,-999.0,57,-99.99,,,0.00,weatherlink.com 1.10,2013-08-01 20:24:00,
2013-08-01 13:39:00,74.2,57.0,30.02,SW,215,4.0,-999.0,55,-99.99,,,0.00,weatherlink.com 1.10,2013-08-01 20:39:00,
2013-08-01 13:54:00,74.1,57.0,30.02,WSW,237,5.0,-999.0,56,-99.99,,,0.00,weatherlink.com 1.10,2013-08-01 20:54:00,
2013-08-01 14:09:00,74.6,57.0,30.01,SW,236,0.0,-999.0,54,-99.99,,,0.00,weatherlink.com 1.10,2013-08-01 21:09:00,
2013-08-01 14:24:00,76.6,58.0,30.01,SW,229,4.0,-999.0,52,-99.99,,,0.00,weatherlink.com 1.10,2013-08-01 21:24:00,
2013-08-01 14:39:00,74.6,56.0,30.01,ESE,111,3.0,-999.0,53,-99.99,,,0.00,weatherlink.com 1.10,2013-08-01 21:39:00,
2013-08-01 14:54:00,75.7,57.0,30.00,ESE,110,4.0,-999.0,52,-99.99,,,0.00,weatherlink.com 1.10,2013-08-01 21:54:00,
2013-08-01 15:09:00,75.7,57.0,30.00,South,188,2.0,-999.0,53,-99.99,,,0.00,weatherlink.com 1.10,2013-08-01 22:09:00,
2013-08-01 15:24:00,78.6,57.0,30.00,South,172,0.0,-999.0,48,-99.99,,,0.00,weatherlink.com 1.10,2013-08-01 22:24:00,
2013-08-01 15:39:00,77.8,58.0,29.99,SSW,213,1.0,-999.0,50,-99.99,,,0.00,weatherlink.com 1.10,2013-08-01 22:39:00,
2013-08-01 15:54:00,78.0,58.0,29.98,SW,221,0.0,-999.0,50,-99.99,,,0.00,weatherlink.com 1.10,2013-08-01 22:54:00,
2013-08-01 16:39:00,77.6,55.0,29.97,East,94,0.0,-999.0,46,-99.99,,,0.00,weatherlink.com 1.10,2013-08-01 23:39:00,
2013-08-01 16:54:00,76.7,56.0,29.97,SW,223,5.0,-999.0,49,-99.99,,,0.00,weatherlink.com 1.10,2013-08-01 23:54:00,
2013-08-01 17:09:00,77.4,57.0,29.96,WSW,246,0.0,-999.0,49,-99.99,,,0.00,weatherlink.com 1.10,2013-08-02 00:09:00,
2013-08-01 17:24:00,78.0,57.0,29.97,SW,223,1.0,-999.0,49,-99.99,,,0.00,weatherlink.com 1.10,2013-08-02 00:24:00,
2013-08-01 17:54:00,74.8,56.0,29.97,SW,215,0.0,-999.0,52,-99.99,,,0.00,weatherlink.com 1.10,2013-08-02 00:54:00,
2013-08-01 18:24:00,74.2,57.0,29.96,SW,226,0.0,-999.0,55,-99.99,,,0.00,weatherlink.com 1.10,2013-08-02 01:24:00,
2013-08-01 18:39:00,72.4,57.0,29.96,WSW,250,0.0,-999.0,58,-99.99,,,0.00,weatherlink.com 1.10,2013-08-02 01:39:00,
2013-08-01 18:54:00,71.3,56.0,29.96,WSW,248,0.0,-999.0,59,-99.99,,,0.00,weatherlink.com 1.10,2013-08-02 01:54:00,
2013-08-01 19:24:00,68.6,55.0,29.95,West,259,1.0,-999.0,63,-99.99,,,0.00,weatherlink.com 1.10,2013-08-02 02:24:00,
2013-08-01 19:39:00,66.1,55.0,29.95,WSW,238,0.0,-999.0,67,-99.99,,,0.00,weatherlink.com 1.10,2013-08-02 02:39:00,
2013-08-01 20:08:00,64.0,55.0,29.95,West,281,0.0,-999.0,72,-99.99,,,0.00,weatherlink.com 1.10,2013-08-02 03:08:00,
2013-08-01 20:24:00,63.1,54.0,29.95,West,281,0.0,-999.0,73,-99.99,,,0.00,weatherlink.com 1.10,2013-08-02 03:24:00,
2013-08-01 20:53:00,62.0,54.0,29.96,West,280,0.0,-999.0,75,-99.99,,,0.00,weatherlink.com 1.10,2013-08-02 03:53:00,
2013-08-01 21:09:00,61.2,53.0,29.96,West,280,0.0,-999.0,74,-99.99,,,0.00,weatherlink.com 1.10,2013-08-02 04:09:00,
2013-08-01 21:24:00,61.0,53.0,29.96,West,280,0.0,-999.0,75,-99.99,,,0.00,weatherlink.com 1.10,2013-08-02 04:24:00,
2013-08-01 21:39:00,60.3,53.0,29.96,West,279,0.0,-999.0,76,-99.99,,,0.00,weatherlink.com 1.10,2013-08-02 04:39:00,
2013-08-01 21:54:00,59.7,52.0,29.96,West,268,0.0,-999.0,77,-99.99,,,0.00,weatherlink.com 1.10,2013-08-02 04:54:00,
2013-08-01 22:09:00,59.0,53.0,29.97,WSW,249,2.0,-999.0,80,-99.99,,,0.00,weatherlink.com 1.10,2013-08-02 05:09:00,
2013-08-01 22:24:00,58.2,53.0,29.97,WSW,256,0.0,-999.0,82,-99.99,,,0.00,weatherlink.com 1.10,2013-08-02 05:24:00,
2013-08-01 22:39:00,57.8,53.0,29.97,WSW,256,0.0,-999.0,83,-99.99,,,0.00,weatherlink.com 1.10,2013-08-02 05:39:00,
2013-08-01 22:54:00,57.8,53.0,29.97,WSW,256,0.0,-999.0,83,-99.99,,,0.00,weatherlink.com 1.10,2013-08-02 05:54:00,
2013-08-01 23:08:00,57.4,53.0,29.96,WSW,256,0.0,-999.0,84,-99.99,,,0.00,weatherlink.com 1.10,2013-08-02 06:08:00,
2013-08-01 23:24:00,57.2,52.0,29.96,WSW,256,0.0,-999.0,84,-99.99,,,0.00,weatherlink.com 1.10,2013-08-02 06:24:00,
2013-08-01 23:39:00,57.0,53.0,29.96,WNW,296,3.0,-999.0,85,-99.99,,,0.00,weatherlink.com 1.10,2013-08-02 06:39:00,
2013-08-01 23:54:00,56.8,52.0,29.95,WNW,286,0.0,-999.0,84,-99.99,,,0.00,weatherlink.com 1.10,2013-08-02 06:54:00,